FW6550 Weather Reports


time (UTC)temp
C
wind
direction
speed
KPH
gust
KPH
rain 1hr
cm
rain 24hr
cm
rain mn
cm
humidity
%
barometer
mb
20260506044547 22 234 1.6 8.0 0.00 0.00 0.00 70 1012.4
20260506043031 22 0 1.6 6.4 0.00 0.00 0.00 69 1012.2
20260506041944 22 197 0.0 8.0 0.00 0.00 0.00 69 1012.0
20260506040032 22 0 1.6 9.7 0.00 0.00 0.00 69 1012.1
20260506034530 22 0 0.0 3.2 0.00 0.00 0.00 70 1012.3
20260506033034 22 0 0.0 4.8 0.00 0.00 0.00 69 1012.3
20260506031544 22 197 0.0 9.7 0.00 0.00 0.00 69 1012.2
20260506030032 22 47 1.6 11.3 0.00 0.00 0.00 69 1012.2
20260506024536 22 135 0.0 6.4 0.00 0.00 0.00 69 1011.7
20260506023035 22 0 0.0 6.4 0.00 0.00 0.00 69 1011.7
20260506021534 22 0 0.0 3.2 0.00 0.00 0.00 69 1011.5
20260506020035 23 0 0.0 3.2 0.00 0.00 0.00 69 1011.8
20260506014534 23 0 0.0 3.2 0.00 0.00 0.00 69 1011.6
20260506013041 23 0 0.0 0.0 0.00 0.00 0.00 69 1011.6
20260506011541 23 0 0.0 0.0 0.00 0.00 0.00 67 1011.4
20260506010053 23 0 0.0 1.6 0.00 0.00 0.00 66 1011.8
20260506004534 23 0 0.0 3.2 0.00 0.00 0.00 65 1011.7
20260506003034 24 0 0.0 3.2 0.00 0.00 0.00 64 1011.7
20260506001531 24 0 0.0 3.2 0.00 0.00 0.00 63 1011.7
20260506000037 25 0 0.0 1.6 0.00 0.00 0.00 61 1011.5
20260505234536 25 238 0.0 4.8 0.00 0.00 0.00 60 1011.6
20260505233034 25 159 0.0 3.2 0.00 0.00 0.00 60 1011.7
20260505231532 26 0 0.0 4.8 0.00 0.00 0.00 59 1012.1
20260505230040 26 0 0.0 6.4 0.00 0.00 0.00 60 1012.0
20260505224543 26 219 0.0 4.8 0.00 0.00 0.00 59 1012.2
20260505223036 26 0 1.6 6.4 0.00 0.00 0.00 57 1012.2
20260505221534 26 0 0.0 6.4 0.00 0.00 0.00 58 1012.2
20260505220035 26 0 1.6 6.4 0.00 0.00 0.00 57 1012.4
20260505214534 26 0 0.0 8.0 0.00 0.00 0.00 56 1012.2
20260505213031 26 76 0.0 4.8 0.00 0.00 0.00 59 1012.3
20260505211536 26 160 0.0 6.4 0.00 0.00 0.00 57 1012.5
20260505210034 26 230 1.6 6.4 0.00 0.00 0.00 56 1012.7
20260505204531 26 196 0.0 3.2 0.00 0.00 0.00 57 1012.5
20260505203037 26 0 0.0 4.8 0.00 0.00 0.00 56 1012.8
20260505201542 26 0 1.6 11.3 0.00 0.00 0.00 55 1012.7
20260505200037 27 176 1.6 9.7 0.00 0.00 0.00 54 1012.9
20260505194536 27 350 1.6 6.4 0.00 0.00 0.00 55 1012.9
20260505193032 27 224 1.6 6.4 0.00 0.00 0.00 55 1013.0
20260505191534 27 0 0.0 8.0 0.00 0.00 0.00 53 1013.3
20260505190037 26 47 1.6 9.7 0.00 0.00 0.00 57 1013.3
20260505184534 26 64 0.0 8.0 0.00 0.00 0.00 55 1013.8
20260505183055 27 0 3.2 12.9 0.00 0.00 0.00 56 1014.1
20260505181535 26 267 1.6 11.3 0.00 0.00 0.00 59 1014.2
20260505180037 26 0 0.0 6.4 0.00 0.00 0.00 56 1014.3
20260505174536 26 213 4.8 12.9 0.00 0.00 0.00 55 1014.5
20260505173041 27 0 1.6 6.4 0.00 0.00 0.00 57 1014.5
20260505171543 26 0 0.0 14.5 0.00 0.00 0.00 61 1014.7
20260505170033 25 264 4.8 14.5 0.00 0.00 0.00 58 1015.0
20260505164535 25 0 0.0 12.9 0.00 0.00 0.00 59 1014.7
20260505163035 25 298 1.6 9.7 0.00 0.00 0.00 57 1014.8
20260505161532 25 265 1.6 8.0 0.00 0.00 0.00 61 1014.7
20260505153032 25 0 3.2 12.9 0.00 0.00 0.00 60 1015.2
20260505151536 24 0 0.0 6.4 0.00 0.00 0.00 65 1015.1
20260505124532 15 0 0.0 4.8 0.00 0.00 0.00 79 1014.5
20260505123032 14 0 0.0 1.6 0.00 0.00 0.00 76 1014.4
20260505121538 13 0 0.0 1.6 0.00 0.00 0.00 70 1014.0
20260505120057 13 0 0.0 0.0 0.00 0.00 0.00 69 1013.8
20260505114531 12 0 0.0 0.0 0.00 0.00 0.00 70 1013.7
20260505113037 12 0 0.0 0.0 0.00 0.00 0.00 74 1013.4
20260505111532 12 0 0.0 0.0 0.00 0.00 0.00 76 1013.4
20260505101534 13 0 0.0 0.0 0.00 0.00 0.00 79 1013.4
20260505100035 13 0 0.0 0.0 0.00 0.00 0.00 79 1013.2
20260505094532 13 0 0.0 1.6 0.00 0.00 0.00 78 1013.3
20260505093041 13 0 0.0 0.0 0.00 0.00 0.00 80 1013.5
20260505091535 13 0 0.0 0.0 0.00 0.00 0.00 80 1013.7
20260505090041 13 0 0.0 0.0 0.00 0.00 0.00 80 1013.8
20260505084533 14 0 0.0 0.0 0.00 0.00 0.00 80 1013.7
20260505083034 14 0 0.0 0.0 0.00 0.00 0.00 80 1013.7
20260505081539 15 0 0.0 0.0 0.00 0.00 0.00 79 1013.8
20260505080037 15 0 0.0 0.0 0.00 0.00 0.00 78 1013.6
20260505074535 15 0 0.0 0.0 0.00 0.00 0.00 77 1013.8
20260505073051 15 0 0.0 0.0 0.00 0.00 0.00 77 1014.1
20260505071534 16 0 0.0 1.6 0.00 0.00 0.00 76 1014.1
20260505070032 16 0 0.0 4.8 0.00 0.00 0.00 75 1014.2
20260505064540 16 0 0.0 6.4 0.00 0.00 0.00 74 1014.3
20260505063034 16 149 0.0 4.8 0.00 0.00 0.00 73 1014.3
20260505061547 17 64 0.0 4.8 0.00 0.00 0.00 72 1014.2
20260505060036 17 0 0.0 4.8 0.00 0.00 0.00 71 1014.4